2022 SW1
ephemeris date magn radius delta ra dec elong phase
Today20 Oct 202531.31.489 AU2.002 AU10h53m+09°52'45.7°28.6°
2022 SW1 - 2025-10-20
astro.vanbuitenen.nl


 
-1 year
-1 month
-1 day
Now
+1 day
+1 month
+1 year

The interactive orbit chart above shows the body's path through the solar system and its position at the given date. Green and blue lines are shown perpendicular to the ecliptic plane: Green if the path is above the ecliptic plane, blue if it is below. (Left-click and drag to rotate the view; Right-click and drag to move the view; Use scroll wheel to zoom in our out.)

The orbital elements of 2022 SW1 are:

            e (Eccentricity)                : 0.5235597
            a (Semimajor axis)              : 1.9494942
            i (Inclination)                 : 4.90657
            Ω (Longitude of ascending node) : 357.01606
            ω (Argument of perihelion)      : 39.66154
            M (Mean anomaly)                : 335.56736
            Epoch                           : 2025 May 05

            L (Longitude of perihelion)     : 36.57428
            B (Latitude of perihelion)      : 3.12935
            P (Orbital period in years)     : 2.72            
        

The light curve chart below shows the estimated development of the minor planet's magnitude.


The all-sky chart below shows the path of the minor planet over the same period as the light curve. The current position is marked yellow.





The following chart shows the path of the minor planet in the next few days. The field of view is optimized for (~10x50) binoculars and finderscopes.




Ephemerides:
Date       Time       RA (2000)    DEC (2000)    delta   radius  elong  phase   PA    magn
2025-10-20 00:00 UT   10 53 14.2   +09 52 58     2.002    1.489   45.7   28.6   295   31.3 
2025-10-20 03:42 UT   10 53 34.2   +09 50 49     2.002    1.490   45.8   28.6   295   31.3 
2025-10-21 00:00 UT   10 55 23.2   +09 39 04     2.003    1.496   46.1   28.7   295   31.3 
2025-10-22 00:00 UT   10 57 31.1   +09 25 14     2.003    1.504   46.5   28.7   295   31.3 
2025-10-23 00:00 UT   10 59 37.7   +09 11 29     2.004    1.511   47.0   28.8   295   31.3 
2025-10-24 00:00 UT   11 01 43.2   +08 57 48     2.004    1.519   47.4   28.8   295   31.4 
2025-10-25 00:00 UT   11 03 47.5   +08 44 11     2.004    1.526   47.8   28.9   295   31.4 
2025-10-26 00:00 UT   11 05 50.6   +08 30 39     2.004    1.534   48.3   28.9   295   31.4 
2025-10-27 00:00 UT   11 07 52.5   +08 17 11     2.004    1.541   48.7   29.0   295   31.4 
2025-10-28 00:00 UT   11 09 53.3   +08 03 49     2.004    1.549   49.2   29.0   295   31.4 
2025-10-29 00:00 UT   11 11 52.9   +07 50 31     2.003    1.556   49.6   29.1   295   31.4 
2025-10-30 00:00 UT   11 13 51.4   +07 37 18     2.003    1.564   50.1   29.2   295   31.4 
2025-10-31 00:00 UT   11 15 48.8   +07 24 10     2.002    1.571   50.6   29.2   295   31.4 
2025-11-01 00:00 UT   11 17 45.0   +07 11 08     2.001    1.579   51.0   29.3   295   31.4 
2025-11-02 00:00 UT   11 19 40.1   +06 58 10     2.000    1.586   51.5   29.3   295   31.5 
2025-11-03 00:00 UT   11 21 34.1   +06 45 18     1.999    1.593   52.0   29.4   295   31.5 
2025-11-04 00:00 UT   11 23 27.0   +06 32 31     1.998    1.601   52.5   29.4   295   31.5 


    Terminology:
            
    delta:  distance between minor planet and earth in AU
    radius: distance between minor planet and sun in AU
    magn:   magnitude (brightness) estimate    
    ra:     right ascension in hours (24h = 360deg)
    dec:    declination in degrees
    elong:  elongation in degrees (angle sun-earth-minor planet)    
    phase:  phase angle in degrees (angle sun-minor planet-earth)        
    AU:     Astronomical Unit (mean distance between earth and sun: 149597870.7 km
    

Orbital elements provided by the MPC (Minor Planet Center).
Calculations by a modified version of AAPlus, a C# implementation of the AA+ project by PJ Naughter from the algorithms presented in the book "Astronomical Algorithms" by Jean Meeus.
NGC2000 dso catalog and star labels from VizieR as provided by the Strasbourg astronomical Data Center.
Tycho2 catalog from the ESO archive.